Barrow, AK

3:56 PM AKDT on September 21, 2017 (GMT -0800)
Wiley Post-Will Rogers Memorial

Weather History for PABR - June, 2013

Change the Weather History Date:

Thursday, June 20, 2013

  Actual Average Record
Temperature  
Mean Temperature 51 °F 38 °F  
Max Temperature 62 °F 43 °F 62 °F (2013)
Min Temperature 39 °F 32 °F 21 °F (1947)
Degree Days  
Heating Degree Days 14 27  
Month to date heating degree days 521 620  
Since 1 June heating degree days 521 620  
Since 1 July heating degree days 17956 19139  
Cooling Degree Days 0 0  
Month to date cooling degree days 0 0  
Year to date cooling degree days 0 0  
Since 1 June cooling degree days 0 0  
Moisture  
Dew Point 37 °F    
Average Humidity 0    
Maximum Humidity 83    
Minimum Humidity 60    
Precipitation  
Precipitation 0.00 in 0.01 in 0.22 in (1943)
Month to date precipitation 0.51 0.17  
Year to date precipitation 1.73 0.87  
Snow  
Snow 0.00 in 0.00 in 1.00 in (1994)
Month to date snowfall 0.2 0.6  
Since 1 June snowfall 0.2 0.6  
Since 1 July snowfall 62.7 37.6  
Snow Depth 0.00 in    
Sea Level Pressure  
Sea Level Pressure 29.78 in    
Wind  
Wind Speed 14 mph (ESE)    
Max Wind Speed 22 mph    
Max Gust Speed 26 mph    
Visibility 10 miles    
Events      
T = Trace of Precipitation, MM = Missing Value Source: NWS Daily Summary

Daily Weather History Graph

Daily Weather History Graph

Search for Another Location

Airport or City:

Trip Planner

Search our weather history database for the weather conditions in past years. The results will help you decide how hot, cold, wet, or windy it might be!

Date:

Astronomy

Dec. 31, 1969 Rise Set
Actual Time Sun does not set Sun does not set
Civil Twilight Sun does not set Sun does not set
Nautical Twilight Sun does not set Sun does not set
Astronomical Twilight Sun does not set Sun does not set
Moon No Moon Rise 1:14 AM AKDT (6/20)
Length of Visible Light 24h 00m
Length of Day
24h 00m
Waxing Gibbous, 90% of the Moon is Illuminated
Jun 20
Waxing Gibbous
Jun 23
Full
Jun 29
Last Quarter
Jul 7
New
Jul 15
First Quarter

Hourly Weather History & Observations

Time (AKDT) Temp. Windchill Dew Point Humidity Pressure Visibility Wind Dir Wind Speed Gust Speed Precip Events Conditions
12:53 AM 42.1 °F 34.9 °F 32.0 °F 67% 29.89 in 10.0 mi East 13.8 mph - N/A   Clear
1:53 AM 41.0 °F 33.5 °F 32.0 °F 70% 29.89 in 10.0 mi East 13.8 mph - N/A   Clear
2:53 AM 39.0 °F 31.4 °F 30.9 °F 73% 29.87 in 10.0 mi East 12.7 mph - N/A   Clear
3:53 AM 39.9 °F 31.8 °F 30.0 °F 68% 29.86 in 10.0 mi East 15.0 mph - N/A   Clear
4:53 AM 39.9 °F 31.1 °F 30.0 °F 68% 29.84 in 10.0 mi East 17.3 mph - N/A   Clear
5:53 AM 42.1 °F 34.2 °F 30.9 °F 65% 29.83 in 10.0 mi ESE 16.1 mph - N/A   Clear
6:53 AM 44.1 °F 36.8 °F 33.1 °F 65% 29.82 in 10.0 mi East 16.1 mph - N/A   Clear
7:53 AM 44.1 °F 37.4 °F 34.0 °F 68% 29.80 in 10.0 mi East 13.8 mph - N/A   Clear
8:53 AM 45.0 °F 38.5 °F 34.0 °F 65% 29.78 in 10.0 mi East 13.8 mph - N/A   Partly Cloudy
9:53 AM 46.0 °F 39.6 °F 35.1 °F 66% 29.76 in 10.0 mi East 15.0 mph - N/A   Partly Cloudy
10:53 AM 45.0 °F 37.4 °F 35.1 °F 68% 29.75 in 10.0 mi East 18.4 mph - N/A   Partly Cloudy
11:53 AM 44.1 °F 36.2 °F 35.1 °F 71% 29.74 in 10.0 mi East 18.4 mph - N/A   Partly Cloudy
12:53 PM 44.1 °F 35.9 °F 36.0 °F 73% 29.73 in 10.0 mi East 19.6 mph - N/A   Partly Cloudy
1:53 PM 46.0 °F 39.6 °F 37.0 °F 71% 29.73 in 10.0 mi East 15.0 mph - N/A   Partly Cloudy
2:53 PM 53.1 °F - 43.0 °F 69% 29.75 in 10.0 mi SE 8.1 mph - N/A   Partly Cloudy
3:53 PM 51.1 °F - 42.1 °F 71% 29.74 in 10.0 mi East 10.4 mph - N/A   Partly Cloudy
4:53 PM 46.9 °F - 37.9 °F 71% 29.72 in 10.0 mi ENE 13.8 mph - N/A   Scattered Clouds
5:53 PM 55.9 °F - 45.0 °F 67% 29.74 in 10.0 mi SE 8.1 mph - N/A   Clear
6:53 PM 59.0 °F - 45.0 °F 60% 29.75 in 10.0 mi Calm Calm - N/A   Clear
7:53 PM 57.0 °F - 46.0 °F 67% 29.75 in 10.0 mi West 9.2 mph - N/A   Scattered Clouds
8:53 PM 48.9 °F - 41.0 °F 74% 29.75 in 10.0 mi West 9.2 mph - N/A   Partly Cloudy
9:53 PM 50.0 °F - 43.0 °F 77% 29.77 in 10.0 mi WSW 9.2 mph - N/A   Mostly Cloudy
10:53 PM 46.0 °F 38.8 °F 41.0 °F 83% 29.76 in 10.0 mi SW 18.4 mph - N/A   Mostly Cloudy
11:53 PM 44.1 °F 36.5 °F 39.0 °F 82% 29.77 in 10.0 mi WSW 17.3 mph - N/A   Mostly Cloudy